Погода Жигалово

Погода Жигалово : погода сейчас, прогноз погоды и архив. Всё, что Вы хотите узнать о погоде Жигалово!

Хотите узнать прогноз погоды Жигалово? Тогда Вам сюда: Погода Жигалово

Поиск расширенной информации на нашем сайте:

Другие новости

Новости СМИ2

Главная страница сайта

Новости сайта

03.07.2017

Напоминаем, что на нашем специализированном сайте Метеоцентр.Азия вы можете получить высокодетализированные автоматические прогнозы погоды по пунктам России, СНГ и мира в авиационном формате (включающие направление и скорость ветра, видимость, явления погоды, количество и форму облачности, нижнюю и верхнюю границу облачности).


Погода Жигалово - сегодня

Время (UTC), дата Ветер
(°,м/с) 
Видим.   Явления Облачность Т
(°С)
Тd
(°С)
f(%) Тe
(°С)
Pmin
(гПа)
dP
(гПа)
Po
(мм)
O2
(г/м3)
Тmin Tmax R s Состояние
почвы
00 18.08.17 280 (З) 10 км    10/10 600 м кучево-дожд. 
[Cb cap]
+14.9 +12.1 83 +20  1015.4  1.5  725  275  +14        влажная 
03 18.08.17 240 (ЮЗ) 10 км    10/10 600 м кучево-дожд. 
[Cb cap]
+16.4 +12.1 76 +23  1015.6  0.5  725  273           
06 18.08.17 300 (СЗ) 10 км    10/8 600 м кучево-дожд., средняя 
[Cb cap|Ac und]
+17.6 +11.7 68 +22  1015.6  0.2  725  272           
09 18.08.17 260 (З) 20000 м    8/3 600 м кучево-дожд., средняя 
[Cb cap|Ac trans]
+19.4 +11.3 59 +25  1015.1  -0.3  725  271           
12 18.08.17 250 (З) 20000 м    3/3 600 м кучево-дожд. 
[Cb cap]
+16.4 +11.2 71 +21  1015.8  0.2  725  274    +19.7       
15 18.08.17 250 (З) н/о    4/4 600 м кучево-дожд. 
[Cb cap]
+11 +9.3 89 +12  1017.8  726  280           
18 18.08.17 тихо ()   н/о    4/4 600 м кучево-дожд. 
[Cb cap]
+8.6 +7.7 94 +9  1018.3  0.1  726  282           
21 18.08.17 160 (Ю) н/о  туман  ?/?  
+9 +8.3 95 +10  1017.8  -0.4  726  282           
00 19.08.17 тихо ()   10 км  в посл. час туман  10/10 300 м 
[St]
+10.3 +9.5 95 +11  1017.5  -0.1  726  280  +8.3        сухая 
03 19.08.17 270 (З) 10 км    6/6 600 м кучево-дожд. 
[Cb cap]
+13.8 +10.4 80 +17  1015.7  -1.1  725  276           
06 19.08.17 070 (В) 10 км  дым  10/0 верхняя 
[Ci fib]
+21.7 +4.9 33 +22  1011.2  -3.1  723  269           
09 19.08.17 100 (В) 10 км  дым  8/3 1000 м верхняя 
[Cu med, cong|Ci fib]
+23.3 +6.2 33 +23  1009.2  -1.6  722  267           
12 19.08.17 160 (Ю) 10 км  дым  10/0 верхняя 
[Ci fib]
+16.8 +10.6 67 +21  1009.7  -0.5  721  272    +23.7       
15 19.08.17 140 (ЮВ) н/о    10/0 верхняя 
[Ci fib]
+10.1 +8 87 +11  1011.1  0.2  721  279           
18 19.08.17 тихо ()   н/о    10/0 верхняя 
[Ci fib]
+7.4 +6.3 93 +7  1011  -0.6  721  282           
21 19.08.17 280 (З) н/о    10/10 300 м 
[St]
+6 +5 93 +7  1010.3  -0.9  720  283           
00 20.08.17 тихо ()   0500 м  туман  ?/?  
+7.9 +7.1 95 +8  1009.2  -0.7  720  281  +6        сухая 
03 20.08.17 тихо ()   10 км  в посл. час туман  6/0 верхняя 
[Ci fib]
+13.8 +9.3 74 +15  1006.2  -1.8  718  274           
06 20.08.17 300 (СЗ) 10 км  дым{туман}  10/3 1000 м верхняя 
[Cu hum|Ci fib]
+23.3 +8.2 38 +23  1001.3  -3.3  716  264           
09 20.08.17 300 (СЗ) 5{10}  10 км  дым  10/3 600 м кучево-дожд., верхняя 
[Cb cap|Ci fib]
+22.8 +5.4 32 +23  1000.9  -0.4  716  265           
12 20.08.17 290 (З) 10 км  дым  10/3 600 м кучево-дожд., верхняя 
[Cb cap|Ci fib]
+18.6 +7.6 49 +19  1002  0.4  716  269    +23.3       
15 20.08.17 280 (З) н/о    10/4 600 м кучево-дожд., верхняя 
[Cb cap|Ci fib]
+16 +7.6 57 +16  1002.6  0.2  716  271           
18 20.08.17 260 (З) н/о    10/3 600 м кучево-дожд., верхняя 
[Cb cap|Ci fib]
+14.1 +7 62 +14  1003.2  0.2  716  273           
21 20.08.17 260 (З) н/о    10/0 верхняя 
[Ci fib]
+12.4 +8.2 76 +12  1004.4  0.9  717  275           
00 21.08.17 270 (З) 10 км  дым  10/8 600 м кучево-дожд., средняя 
[Cb cap|Ac und]
+14.7 +10 73 +17  1005.2  1.1  718  272  +11.8        сухая 
Время (UTC), дата Ветер
(°,м/с) 
Видим.   Явления Облачность Т
(°С)
Тd
(°С)
f(%) Тe
(°С)
Pmin
(гПа)
dP
(гПа)
Po
(мм)
O2
(г/м3)
Тmin Tmax R s Состояние
почвы

Для получения пояснительной информации подведите курсор к названию столбца.

ПОГОДА Жигалово - архив

Всё, что Вы хотите узнать о погоде Жигалово - удобно и подробно!

Выберите нужную дату (начиная с 1 января 2015* года) и нажмите кнопку "Найти".
Будут отображены архивные сводки погоды по пункту Жигалово, начиная с указанной даты.


Отображать данные в формате CSV (для использования в таблицах Excel)


Внимание! Наш архив погоды предназначен исключительно для личного некоммерческого использования в познавательных целях. Если Вам необходимы официальные справки о состоянии погоды (для производственных, юридических, коммерческих и т.п. целей), обращайтесь в органы Росгидромета.

*Примечание: данная дата относится к архиву по метеостанциям СССР (Россия, СНГ, Балтия).
Архив по метеостанциям Зарубежной Европы и Азии (кроме Китая) хранится 10 дней, по другим регионам земного шара (Китай, Африка, Америка, Австралия, Океания) - 1 день.

Жигалово - район местоположения метеостанции


Название, широта, долгота, высота метеостанции:
Жигалово 54.8°ш. 105.2°д. 426 м над ур. моря [Российская Федерация]

Дополнительная информация

В oтличие oт бoльшинства пoгoдных сайтoв мы публикуем пoдрoбную метеoинфoрмацию в детальнoм прoфессиoнальнoм фoрмате.

Характеристики температуры и влажнoсти вoздуха измеряются на высoте 2 м в тени вдали oт зданий и деревьев.
Скoрoсть ветра измеряется на высoте 10 м (на урoвне рoста челoвека скoрoсть ветра ниже в 1.5-2 раза). Если метеoстанция нахoдится в гoрoде или в лесу, тo скoрoсть ветра занижена на 2-4 м/с пo сравнению с oткрытым местoм. Скoрoсть ветра над акватoриями крупных рек и oзёр, а также на вершинах хoлмoв на 2-5 м/с выше, чем в oбычных услoвиях.
Атмoсфернoе давление в разных тoчках местнoсти мoжет значительнo oтличаться oт давления на метеoстанции, в зависимoсти oт услoвий рельефа (при пoдъёме на 10 м давление пoнижается примернo на 1 мм рт.ст.).